Wind_Speed
37 39 39 38 37 36 35 37 41 44 45 45 47 48 47 43 39 37 34 20 17 32 35 31 26 22 22 23 25 22 24 26 25 22 19 19 20 16 18 19 16 16 15 20 22
39 40 41 41 42 42 41 40 39 42 44 45 45 45 48 50 49 49 32 27 22 32 32 34 40 33 27 28 30 33 36 29 31 25 24 25 27 25 26 21 23 22 16 19 22
39 40 41 42 42 43 44 45 45 44 45 47 47 46 46 46 53 52 43 38 30 29 32 36 42 36 33 33 35 39 45 32 29 24 26 28 27 33 32 33 29 26 21 21 22
41 42 42 42 43 43 43 45 46 47 48 49 50 50 48 49 51 46 50 46 40 35 35 36 39 37 41 44 41 47 45 35 27 27 33 34 38 34 33 36 34 29 23 23 23
41 42 44 45 45 45 45 45 45 46 47 49 49 51 50 55 58 40 40 45 46 48 40 37 39 38 41 42 39 47 39 37 33 34 31 35 40 40 40 36 37 33 26 22 26
39 41 43 44 45 45 45 46 46 46 46 48 49 52 53 64 50 43 47 47 47 42 42 43 37 38 41 40 43 44 39 37 34 35 32 38 41 43 44 43 45 37 28 25 26
33 34 35 35 35 39 42 44 45 46 47 49 49 50 57 63 45 37 45 46 40 40 42 35 32 34 39 41 42 39 39 39 39 33 38 37 50 49 48 46 41 34 29 29 28
32 33 33 33 33 32 32 31 33 42 46 46 48 51 63 56 49 49 43 35 44 39 41 41 37 34 40 36 33 32 36 38 36 32 36 39 52 51 44 37 33 33 33 28 28
30 31 33 33 32 31 32 30 33 32 33 38 45 48 62 55 51 43 46 48 39 41 48 38 34 38 42 39 38 36 40 39 38 27 38 41 47 38 32 31 32 31 29 25 25
32 30 28 30 32 32 31 28 33 35 33 30 36 42 45 17 23 36 46 48 43 44 41 53 50 49 50 48 41 37 36 40 37 37 40 39 41 41 28 25 23 25 19 21 22
27 27 29 29 28 30 30 28 34 36 35 32 31 31 33 19 24 35 20 40 47 45 49 44 51 68 68 61 49 41 40 43 39 40 37 41 37 41 30 27 21 16 16 18 21
25 24 25 25 27 26 28 27 32 33 39 33 33 40 38 27 34 24 42 30 38 51 49 45 62 65 58 55 47 44 46 49 44 44 37 39 39 31 27 22 19 14 16 19 21
25 24 24 23 23 22 23 23 26 28 35 39 35 39 31 32 46 36 28 38 36 45 56 61 63 58 51 50 46 47 52 45 47 30 24 33 41 37 23 22 18 15 10 9 15
25 24 24 23 21 20 21 22 21 22 21 34 18 7 10 23 45 41 36 33 36 40 48 56 62 26 52 55 52 54 50 45 44 36 19 8 12 34 24 21 21 12 12 13 18
28 28 28 27 22 19 20 20 16 11 5 4 6 4 16 15 16 29 41 33 35 39 38 50 48 62 40 42 50 54 43 44 41 38 31 29 17 28 29 22 24 17 17 15 14
27 28 29 26 21 21 19 14 12 5 8 5 8 11 15 17 14 10 53 43 42 31 40 43 31 36 62 41 34 35 16 22 26 23 13 28 20 29 31 28 24 19 11 8 8
27 26 28 24 21 19 17 11 7 9 6 4 9 19 18 22 3 16 15 54 40 33 35 30 34 18 26 41 35 30 24 4 5 6 5 21 16 35 12 9 21 17 13 11 10
28 29 26 22 20 18 15 11 10 5 17 24 21 19 15 24 12 8 15 19 50 27 17 22 12 31 28 39 35 38 37 16 8 4 4 18 14 17 15 13 10 10 13 12 11
29 27 21 16 12 10 9 10 5 9 10 14 18 14 11 14 16 19 6 8 6 43 18 24 24 13 26 28 35 37 38 32 11 8 2 11 11 22 21 13 10 13 11 14 13
28 21 16 9 7 5 3 8 10 8 10 9 13 9 8 14 13 17 8 8 5 11 42 19 13 30 22 29 32 38 35 28 24 6 4 6 9 13 15 17 5 7 10 10 16
25 17 19 12 7 5 7 7 13 11 14 17 13 13 13 14 8 12 11 7 14 1 26 35 11 11 32 38 40 33 35 21 26 13 5 1 8 15 14 8 9 4 6 11 13
22 16 21 11 8 6 4 11 12 9 4 14 16 17 14 10 8 9 11 17 12 15 3 26 15 17 29 31 35 42 42 43 24 20 16 3 5 19 16 13 14 12 9 14 10
24 14 15 13 13 14 6 6 11 11 7 5 6 4 6 10 10 5 11 15 19 7 14 5 11 10 4 22 21 49 47 46 39 20 35 5 6 9 15 14 10 13 14 16 10
25 20 10 8 7 8 11 9 14 8 8 6 8 8 8 12 8 8 12 13 21 22 12 1 13 13 12 15 26 38 41 41 36 17 27 45 29 27 11 9 9 15 19 16 11
24 20 17 9 5 9 12 10 13 16 10 6 3 6 9 12 11 8 5 10 15 19 15 4 7 18 29 17 14 13 39 45 55 42 23 30 33 18 13 8 6 15 20 18 12
22 19 15 11 12 9 11 14 13 12 17 3 12 8 8 15 13 17 12 8 7 15 15 5 5 12 28 36 27 23 16 40 50 54 46 35 31 25 13 15 16 13 19 16 13
22 20 19 12 12 9 9 11 11 14 5 12 17 17 12 11 15 16 14 11 10 12 15 18 4 13 7 18 18 24 39 25 37 42 49 41 46 33 23 17 17 17 19 11 13
Wind_Direction
270 270 270 269 266 263 262 258 256 255 255 255 254 255 253 249 243 243 230 224 223 230 225 240 253 238 240 250 252 242 234 243 263 270 276 291 293 268 271 269 268 279 300 313 311
274 270 269 269 270 269 264 259 257 255 254 254 254 255 254 253 248 244 236 243 225 222 223 236 249 249 236 247 251 250 239 249 277 269 282 288 283 278 278 268 267 263 274 298 302
274 273 272 270 267 263 262 262 259 257 255 254 255 257 257 257 254 248 243 245 242 228 229 226 236 239 243 246 250 257 251 263 267 269 279 278 271 281 280 276 275 279 277 286 282
276 274 273 271 269 268 265 262 260 258 256 257 258 258 257 256 257 257 244 241 240 233 233 233 234 236 237 243 247 248 256 260 262 269 275 278 279 270 272 275 274 270 276 283 285
276 275 275 274 273 271 269 266 263 262 260 259 258 257 256 252 247 245 247 246 242 238 238 236 235 242 242 245 246 251 257 260 262 273 273 275 275 278 273 274 269 264 266 275 285
279 279 277 274 273 272 269 266 264 263 261 259 257 256 254 252 250 243 241 242 247 244 238 239 241 245 248 249 249 255 258 260 262 270 273 273 278 277 280 290 273 265 269 268 284
286 283 281 280 280 277 273 270 266 262 258 257 255 254 252 250 250 245 242 238 236 237 238 234 228 234 243 246 250 250 256 260 262 269 274 282 278 278 298 289 285 268 275 268 279
297 294 290 287 286 286 284 281 279 268 261 258 256 255 255 255 248 244 248 238 234 226 229 227 223 229 236 239 243 250 256 261 264 270 281 285 283 295 293 292 280 271 276 272 275
297 292 291 290 286 283 283 285 280 276 271 261 256 255 259 262 253 248 244 244 234 232 230 224 217 229 238 239 244 246 253 259 273 286 287 287 289 298 302 290 281 274 278 274 269
315 309 298 288 286 284 281 283 276 275 270 266 257 255 252 242 240 243 242 240 232 232 231 227 229 231 231 231 227 233 250 266 275 286 281 286 284 294 296 289 280 267 266 276 274
320 314 308 303 293 284 284 279 278 280 275 267 258 252 238 253 228 237 240 234 228 223 223 226 224 231 228 232 236 245 257 263 273 270 272 287 285 293 288 288 261 262 281 272 266
325 321 315 307 301 295 289 287 285 284 282 270 268 270 255 246 233 223 221 230 219 220 219 219 226 230 234 235 238 243 250 253 265 267 272 284 284 287 281 268 251 272 281 262 260
322 319 316 312 305 302 297 288 286 287 289 285 282 277 274 246 244 221 220 225 229 219 221 222 234 226 229 229 230 236 240 247 258 264 257 278 280 292 274 261 257 266 260 275 278
331 326 321 313 305 300 288 285 286 294 305 309 281 265 266 243 241 213 219 218 218 224 223 229 226 229 230 231 231 234 238 246 254 260 269 285 289 284 273 250 240 240 241 278 295
327 321 316 312 310 296 284 286 283 296 309 308 1 310 346 261 239 221 203 208 216 221 213 228 232 221 223 229 231 237 239 246 253 259 271 272 272 280 284 260 229 243 258 284 281
329 323 316 304 298 288 291 287 272 232 245 247 301 311 344 339 217 188 207 210 218 219 233 238 240 229 228 227 232 236 230 239 248 256 251 260 251 277 272 251 237 240 263 289 257
332 327 319 309 298 281 279 263 213 219 233 316 304 337 350 357 175 231 195 205 205 203 223 229 221 230 226 221 226 219 208 189 246 240 230 266 245 248 257 254 228 238 246 280 266
330 325 317 307 301 286 266 234 221 245 254 281 298 318 329 332 1 323 226 218 213 208 217 211 201 205 209 207 199 199 198 176 188 206 232 247 220 241 262 231 241 233 263 276 256
335 328 319 314 317 311 257 214 238 246 287 312 299 316 306 328 335 350 27 213 216 215 224 207 220 206 213 208 205 201 208 215 224 234 207 233 245 238 237 214 266 254 272 268 233
342 342 341 336 11 358 277 249 246 251 253 279 310 293 328 342 323 340 349 20 181 214 215 223 220 224 214 217 216 217 207 193 214 193 225 266 243 227 228 233 245 230 242 227 196
347 352 345 327 2 323 271 290 305 287 268 272 263 279 313 324 316 309 297 297 45 23 205 210 215 210 203 207 198 193 196 199 203 217 168 202 249 215 213 190 201 212 277 194 192
357 355 12 350 225 323 301 326 341 2 287 265 278 288 280 305 315 294 288 293 342 6 151 197 215 210 213 220 216 207 205 204 201 195 214 179 259 198 203 212 233 259 254 193 176
1 1 7 28 28 21 1 355 348 329 322 309 275 267 253 302 321 264 288 291 318 8 6 183 191 185 187 195 203 212 210 211 211 212 209 194 228 213 191 194 235 250 214 195 178
356 359 5 30 16 360 356 4 0 4 10 349 306 293 288 286 297 292 307 310 312 314 326 233 224 211 195 207 205 206 208 207 200 204 204 221 242 234 211 238 267 204 195 181 163
359 0 352 338 337 344 334 332 335 351 350 329 299 297 297 300 303 279 326 297 308 306 306 316 281 245 226 199 198 191 214 208 211 212 206 213 215 215 223 254 224 191 191 186 191
357 1 21 348 325 323 318 324 327 321 328 354 343 303 272 266 281 297 316 318 303 305 309 308 302 279 236 231 238 245 211 224 220 222 233 231 227 220 226 230 221 221 199 201 186
353 349 353 356 357 348 340 331 332 324 329 314 318 304 294 272 257 266 285 282 288 282 312 321 302 338 239 234 253 257 224 221 224 225 224 227 231 232 241 236 214 215 205 191 184
Height
3119 3118 3118 3118 3119 3119 3119 3120 3120 3122 3123 3124 3125 3127 3129 3129 3132 3132 3136 3144 3144 3148 3151 3152 3153 3151 3151 3152 3153 3153 3153 3151 3150 3153 3154 3154 3154 3154 3153 3152 3152 3151 3150 3150 3149
3111 3111 3111 3110 3108 3108 3110 3111 3111 3112 3114 3115 3116 3118 3119 3121 3122 3122 3139 3138 3139 3140 3144 3146 3147 3147 3144 3146 3148 3148 3145 3143 3147 3149 3149 3149 3148 3149 3148 3148 3147 3146 3145 3144 3142
3103 3102 3102 3101 3101 3102 3101 3101 3102 3104 3104 3105 3106 3107 3108 3110 3110 3116 3126 3129 3133 3134 3136 3137 3140 3141 3139 3141 3143 3139 3133 3141 3144 3146 3142 3143 3143 3142 3141 3142 3143 3141 3140 3138 3136
3094 3093 3093 3092 3092 3091 3091 3092 3093 3093 3094 3094 3094 3096 3099 3100 3099 3105 3116 3121 3124 3127 3128 3130 3131 3131 3133 3132 3137 3129 3130 3137 3139 3141 3137 3137 3135 3135 3137 3135 3136 3136 3135 3133 3132
3085 3083 3082 3080 3080 3080 3080 3081 3081 3081 3081 3083 3084 3084 3088 3084 3083 3102 3107 3109 3112 3117 3121 3122 3124 3127 3125 3128 3130 3122 3128 3129 3132 3132 3132 3130 3127 3128 3128 3131 3128 3128 3128 3127 3126
3076 3074 3072 3071 3070 3069 3069 3069 3070 3071 3071 3072 3073 3072 3073 3062 3083 3095 3095 3099 3100 3106 3109 3115 3118 3122 3120 3119 3122 3120 3121 3122 3124 3126 3125 3123 3121 3121 3122 3123 3119 3120 3121 3121 3119
3068 3066 3063 3061 3059 3059 3058 3058 3059 3060 3060 3061 3062 3061 3057 3051 3075 3082 3083 3090 3094 3098 3102 3106 3111 3112 3112 3113 3114 3114 3112 3114 3117 3120 3116 3120 3109 3112 3115 3115 3112 3112 3114 3114 3113
3061 3058 3055 3053 3051 3049 3047 3048 3047 3045 3048 3049 3050 3050 3036 3050 3065 3069 3078 3081 3084 3090 3094 3097 3099 3102 3101 3107 3106 3107 3105 3106 3109 3115 3114 3113 3095 3106 3108 3106 3105 3105 3107 3106 3106
3054 3051 3047 3045 3043 3041 3040 3040 3036 3036 3036 3038 3038 3039 3027 3041 3051 3062 3063 3064 3079 3081 3086 3091 3091 3094 3095 3097 3100 3097 3095 3098 3100 3112 3108 3107 3095 3098 3099 3099 3098 3098 3098 3098 3099
3045 3042 3040 3038 3036 3034 3034 3034 3029 3027 3028 3029 3028 3031 3031 3034 3037 3044 3050 3053 3063 3069 3072 3077 3080 3081 3081 3083 3078 3087 3092 3093 3095 3105 3099 3096 3091 3091 3092 3092 3091 3092 3092 3092 3093
3041 3037 3034 3031 3030 3028 3027 3029 3024 3021 3020 3023 3020 3018 3024 3027 3031 3037 3039 3039 3048 3054 3057 3064 3068 3056 3057 3068 3077 3086 3089 3087 3093 3095 3093 3089 3087 3086 3087 3085 3087 3087 3087 3087 3089
3037 3033 3030 3026 3024 3023 3021 3019 3015 3014 3008 3015 3015 3008 3017 3023 3020 3026 3028 3033 3034 3037 3049 3058 3040 3051 3061 3068 3076 3080 3081 3080 3086 3087 3088 3085 3082 3081 3080 3080 3083 3083 3082 3084 3085
3033 3029 3026 3023 3020 3019 3015 3014 3011 3008 3003 3001 3006 3002 3008 3009 3005 3019 3020 3022 3027 3031 3033 3035 3028 3049 3053 3060 3064 3068 3069 3077 3079 3082 3081 3081 3075 3077 3076 3076 3078 3079 3079 3079 3079
3028 3024 3021 3019 3019 3014 3011 3009 3008 3007 3002 2996 2993 2996 2996 2992 2986 3008 3012 3017 3020 3023 3030 3030 3038 3043 3045 3046 3056 3058 3065 3073 3076 3078 3078 3078 3070 3072 3070 3071 3073 3074 3075 3076 3075
3025 3021 3017 3013 3013 3011 3009 3007 3007 3009 3006 2997 2993 2992 2989 2989 2988 2991 3003 3008 3010 3014 3022 3010 3023 3031 3033 3036 3049 3050 3063 3068 3073 3072 3076 3074 3077 3060 3067 3067 3068 3071 3072 3072 3070
3021 3017 3012 3009 3007 3004 3004 3004 3005 3010 2999 2992 2991 2989 2986 2983 2981 2984 2989 3000 3005 3010 3012 3016 3021 3026 3029 3039 3046 3055 3062 3067 3070 3071 3066 3069 3075 3052 3058 3060 3064 3067 3068 3068 3066
3017 3012 3007 3002 3000 2999 2999 3001 3004 2999 2993 2992 2989 2988 2986 2981 2980 2980 2981 2986 2992 3001 3003 3008 3014 3020 3026 3035 3043 3050 3057 3064 3068 3065 3059 3062 3064 3046 3053 3053 3059 3063 3064 3063 3064
3013 3007 3001 2997 2995 2993 2994 2997 2995 2992 2991 2989 2988 2988 2989 2983 2978 2979 2982 2984 2991 2998 2999 3004 3010 3011 3014 3021 3028 3036 3045 3047 3060 3058 3052 3051 3043 3042 3048 3053 3055 3058 3058 3059 3061
3009 3002 2996 2993 2991 2989 2991 2992 2991 2991 2990 2988 2987 2986 2987 2987 2986 2981 2981 2982 2987 2992 2996 2997 3000 3005 3010 3016 3026 3033 3034 3044 3046 3046 3048 3040 3037 3040 3045 3049 3052 3053 3053 3055 3057
3005 2999 2995 2992 2989 2988 2990 2989 2989 2989 2988 2988 2987 2987 2986 2985 2987 2984 2980 2980 2981 2982 2987 2992 2996 2998 3007 3015 3020 3021 3032 3039 3042 3044 3046 3035 3033 3034 3037 3044 3048 3048 3050 3051 3054
3004 2999 2995 2991 2990 2990 2989 2988 2986 2986 2986 2987 2985 2984 2985 2984 2984 2984 2981 2976 2975 2977 2980 2987 2991 2994 3000 2996 3004 3016 3019 3025 3032 3034 3037 3039 3030 3030 3035 3040 3044 3046 3048 3050 3053
3004 3000 2995 2988 2989 2989 2988 2987 2985 2983 2982 2982 2982 2983 2984 2983 2981 2982 2981 2980 2975 2976 2976 2981 2986 2989 2990 2997 3004 3007 3008 3012 3017 3021 3029 3030 3029 3029 3034 3038 3041 3045 3047 3050 3052
3004 3000 2995 2991 2990 2989 2988 2987 2985 2982 2981 2981 2980 2982 2982 2982 2981 2979 2978 2977 2975 2974 2976 2979 2982 2986 2990 2997 2996 2995 3000 3007 3014 3020 3024 3030 3026 3027 3030 3034 3038 3041 3045 3048 3050
3005 3000 2997 2994 2992 2990 2988 2987 2984 2983 2981 2979 2979 2979 2979 2979 2979 2977 2976 2976 2974 2973 2975 2975 2975 2977 2978 2981 2990 2993 2999 3005 3012 3015 3017 3016 3022 3026 3029 3033 3035 3037 3043 3047 3049
3006 3002 2997 2994 2992 2991 2988 2986 2984 2982 2980 2977 2978 2978 2978 2977 2976 2975 2975 2974 2975 2973 2974 2975 2973 2973 2974 2978 2983 2988 2992 2996 2998 3007 3011 3012 3018 3023 3028 3032 3035 3038 3041 3045 3048
3008 3003 2999 2995 2992 2990 2988 2986 2984 2982 2980 2978 2977 2975 2975 2974 2975 2972 2973 2973 2973 2971 2973 2974 2973 2971 2972 2975 2981 2983 2987 2992 2997 3002 3006 3012 3013 3022 3026 3029 3035 3037 3040 3043 3046
3007 3003 2999 2996 2992 2989 2988 2985 2983 2980 2977 2976 2974 2972 2971 2971 2969 2970 2971 2970 2971 2970 2971 2974 2974 2973 2972 2975 2979 2979 2974 2985 2992 2996 3003 3006 3007 3018 3023 3028 3032 3036 3039 3041 3044